User: anonymous   Login
Location: Caltech
(34.1382°N, 118.1253°W)
Time: 10:46:56
(UTC-08:00)
Language:

Cosmos 1733 Rocket - Orbit

View from above orbital plane
View from above orbital plane
View from above satellite
View from above satellite

Ground track
Ground track

The orbit data is extracted from the following two-line orbital elements,

1 16612U 86018B   15061.34949448  .00000681  00000-0  79104-4 0  9997
2 16612 082.5196 002.3730 0018939 041.7371 075.7635 14.83836323467198
Epoch (UTC): 02 March 2015 08:23:16
Eccentricity: 0.0018939
inclination: 82.5196°
perigee height: 604 km
apogee height: 630 km
right ascension of ascending node: 2.3730°
argument of perigee: 41.7371°
revolutions per day: 14.83836323
mean anomaly at epoch: 75.7635°
orbit number at epoch: 46719

The dashed part of the orbit path shows where the satellite is in the earth's shadow,  

DLR